EW7351 Weather Reports


time (UTC)temp
C
wind
direction
speed
KPH
gust
KPH
rain 1hr
cm
rain 24hr
cm
rain mn
cm
humidity
%
barometer
mb
20260831225907 38 141 4.8 12.9 0.00 0.00 0.00 24 1012.1
20260831225403 38 134 4.8 12.9 0.00 0.00 0.00 24 1012.1
20260831224838 38 176 4.8 14.5 0.00 0.00 0.00 24 1012.2
20260831224309 38 233 3.2 14.5 0.00 0.00 0.00 24 1012.2
20260831223807 38 158 3.2 9.7 0.00 0.00 0.00 24 1012.2
20260831223303 38 107 4.8 9.7 0.00 0.00 0.00 24 1012.3
20260831222802 38 232 4.8 11.3 0.00 0.00 0.00 24 1012.3
20260831222232 38 136 3.2 11.3 0.00 0.00 0.00 25 1012.3
20260831221953 38 113 3.2 9.7 0.00 0.00 0.00 25 1012.4
20260831221223 38 115 4.8 12.9 0.00 0.00 0.00 24 1012.4
20260831220722 38 117 4.8 14.5 0.00 0.00 0.00 24 1012.4
20260831220154 38 152 4.8 12.9 0.00 0.00 0.00 24 1012.5
20260831215651 38 222 4.8 11.3 0.00 0.00 0.00 24 1012.5
20260831215120 38 119 4.8 11.3 0.00 0.00 0.00 24 1012.5
20260831214556 38 94 6.4 14.5 0.00 0.00 0.00 25 1012.6
20260831214029 38 215 4.8 14.5 0.00 0.00 0.00 24 1012.6
20260831213501 38 159 4.8 12.9 0.00 0.00 0.00 24 1012.7
20260831212959 38 161 3.2 9.7 0.00 0.00 0.00 25 1012.7
20260831212654 38 129 4.8 16.1 0.00 0.00 0.00 26 1012.8
20260831211905 38 126 4.8 16.1 0.00 0.00 0.00 26 1012.8
20260831211404 38 208 6.4 16.1 0.00 0.00 0.00 24 1012.9
20260831210855 38 146 4.8 16.1 0.00 0.00 0.00 25 1013.0
20260831210354 38 229 4.8 12.9 0.00 0.00 0.00 26 1013.0
20260831205828 37 120 6.4 16.1 0.00 0.00 0.00 26 1013.1
20260831205544 38 122 6.4 17.7 0.00 0.00 0.00 26 1013.2
20260831204818 38 147 4.8 17.7 0.00 0.00 0.00 26 1013.2
20260831204249 38 126 6.4 14.5 0.00 0.00 0.00 26 1013.4
20260831203747 38 135 4.8 14.5 0.00 0.00 0.00 26 1013.4
20260831203244 38 207 6.4 16.1 0.00 0.00 0.00 25 1013.5
20260831202718 38 109 4.8 17.7 0.00 0.00 0.00 25 1013.5
20260831202203 38 123 3.2 16.1 0.00 0.00 0.00 25 1013.6
20260831201703 38 114 6.4 16.1 0.00 0.00 0.00 24 1013.7
20260831201203 37 247 6.4 16.1 0.00 0.00 0.00 26 1013.7
20260831200701 38 148 4.8 16.1 0.00 0.00 0.00 26 1013.7
20260831200201 38 186 6.4 16.1 0.00 0.00 0.00 25 1013.9
20260831195915 38 250 4.8 16.1 0.00 0.00 0.00 27 1014.0
20260831195152 38 165 4.8 16.1 0.00 0.00 0.00 26 1014.1
20260831194649 38 107 6.4 12.9 0.00 0.00 0.00 27 1014.1
20260831194146 37 230 8.0 17.7 0.00 0.00 0.00 30 1014.2
20260831193621 37 210 6.4 17.7 0.00 0.00 0.00 29 1014.3
20260831193055 37 134 6.4 16.1 0.00 0.00 0.00 29 1014.4
20260831192530 37 221 6.4 14.5 0.00 0.00 0.00 30 1014.4
20260831192001 37 231 6.4 14.5 0.00 0.00 0.00 30 1014.5
20260831191500 37 110 6.4 14.5 0.00 0.00 0.00 31 1014.6
20260831190931 37 77 6.4 14.5 0.00 0.00 0.00 31 1014.5
20260831190427 37 214 6.4 14.5 0.00 0.00 0.00 31 1014.5
20260831185925 37 115 6.4 20.9 0.00 0.00 0.00 31 1014.6
20260831185424 37 159 6.4 20.9 0.00 0.00 0.00 30 1014.7
20260831184855 37 105 6.4 17.7 0.00 0.00 0.00 31 1014.7
20260831184616 37 125 6.4 17.7 0.00 0.00 0.00 32 1014.7
20260831183849 37 120 6.4 17.7 0.00 0.00 0.00 31 1014.8
20260831183348 37 153 6.4 16.1 0.00 0.00 0.00 31 1014.8
20260831182818 37 117 6.4 16.1 0.00 0.00 0.00 31 1014.9
20260831182728 37 127 6.4 14.5 0.00 0.00 0.00 29 1014.9
20260831181747 37 164 3.2 14.5 0.00 0.00 0.00 33 1015.0
20260831181219 37 120 3.2 11.3 0.00 0.00 0.00 32 1015.1
20260831180717 36 115 4.8 12.9 0.00 0.00 0.00 32 1015.2
20260831180153 37 231 4.8 12.9 0.00 0.00 0.00 32 1015.3
20260831175627 36 129 3.2 12.9 0.00 0.00 0.00 32 1015.4
20260831175121 36 160 3.2 12.9 0.00 0.00 0.00 34 1015.5
20260831174619 36 249 4.8 16.1 0.00 0.00 0.00 33 1015.6
20260831174051 36 148 4.8 16.1 0.00 0.00 0.00 35 1015.6
20260831173812 36 222 3.2 12.9 0.00 0.00 0.00 36 1015.7
20260831173045 36 243 4.8 14.5 0.00 0.00 0.00 37 1015.8
20260831172545 36 246 3.2 14.5 0.00 0.00 0.00 36 1015.8
20260831172016 35 117 3.2 12.9 0.00 0.00 0.00 37 1015.9
20260831171514 35 161 6.4 14.5 0.00 0.00 0.00 37 1015.9
20260831170945 35 248 6.4 14.5 0.00 0.00 0.00 37 1016.0
20260831170441 35 213 4.8 12.9 0.00 0.00 0.00 38 1016.0
20260831165935 35 195 6.4 16.1 0.00 0.00 0.00 39 1016.0
20260831165436 35 267 4.8 16.1 0.00 0.00 0.00 40 1016.0
20260831164909 35 130 4.8 14.5 0.00 0.00 0.00 38 1016.0
20260831164903 35 165 4.8 14.5 0.00 0.00 0.00 39 1016.2
20260831163841 34 162 4.8 14.5 0.00 0.00 0.00 41 1016.1
20260831163340 34 239 6.4 14.5 0.00 0.00 0.00 40 1016.1
20260831162814 34 210 6.4 16.1 0.00 0.00 0.00 42 1016.2
20260831162251 34 172 4.8 16.1 0.00 0.00 0.00 40 1016.2
20260831161750 34 209 1.6 11.3 0.00 0.00 0.00 41 1016.2
20260831161227 34 255 3.2 11.3 0.00 0.00 0.00 41 1016.3
20260831160927 33 122 3.2 9.7 0.00 0.00 0.00 42 1016.3
20260831160428 33 155 3.2 9.7 0.00 0.00 0.00 42 1016.2
20260831155703 33 248 4.8 11.3 0.00 0.00 0.00 41 1016.3
20260831155205 33 125 6.4 14.5 0.00 0.00 0.00 44 1016.2
20260831154644 32 219 4.8 14.5 0.00 0.00 0.00 43 1016.2
20260831154145 32 142 4.8 14.5 0.00 0.00 0.00 42 1016.3
20260831153637 32 249 4.8 14.5 0.00 0.00 0.00 43 1016.3
20260831153140 32 251 6.4 14.5 0.00 0.00 0.00 43 1016.2
20260831152618 32 227 6.4 14.5 0.00 0.00 0.00 43 1016.2
20260831152118 32 224 6.4 12.9 0.00 0.00 0.00 45 1016.2
20260831151616 32 216 6.4 12.9 0.00 0.00 0.00 46 1016.1
20260831151115 32 149 4.8 12.9 0.00 0.00 0.00 46 1016.1
20260831150614 31 224 4.8 12.9 0.00 0.00 0.00 47 1016.0
20260831150537 31 208 4.8 11.3 0.00 0.00 0.00 48 1016.1
20260831145550 31 232 3.2 12.9 0.00 0.00 0.00 51 1016.0
20260831145045 31 150 3.2 12.9 0.00 0.00 0.00 51 1016.0
20260831144814 31 235 1.6 8.0 0.00 0.00 0.00 53 1015.9
20260831144021 30 231 1.6 8.0 0.00 0.00 0.00 57 1016.0
20260831143523 30 150 1.6 8.0 0.00 0.00 0.00 57 1016.0
20260831142959 30 159 1.6 8.0 0.00 0.00 0.00 57 1016.0
20260831142456 30 223 1.6 8.0 0.00 0.00 0.00 59 1016.0
20260831141952 29 203 1.6 9.7 0.00 0.00 0.00 60 1016.0
20260831141450 29 136 1.6 9.7 0.00 0.00 0.00 60 1016.0
20260831140949 28 159 1.6 6.4 0.00 0.00 0.00 61 1016.0
20260831140449 28 261 1.6 8.0 0.00 0.00 0.00 62 1016.0
20260831135949 28 176 3.2 8.0 0.00 0.00 0.00 63 1015.9
20260831135423 28 245 3.2 8.0 0.00 0.00 0.00 63 1015.9
20260831134921 28 146 1.6 8.0 0.00 0.00 0.00 65 1015.9
20260831134414 27 229 1.6 9.7 0.00 0.00 0.00 66 1015.9
20260831133850 27 201 3.2 9.7 0.00 0.00 0.00 67 1015.7
20260831133324 27 143 3.2 9.7 0.00 0.00 0.00 67 1015.7
20260831132759 27 117 4.8 9.7 0.00 0.00 0.00 68 1015.6
20260831132527 27 194 4.8 9.7 0.00 0.00 0.00 68 1015.5
20260831131734 26 240 1.6 8.0 0.00 0.00 0.00 68 1015.4
20260831131232 26 135 1.6 9.7 0.00 0.00 0.00 68 1015.4
20260831130704 26 219 1.6 9.7 0.00 0.00 0.00 69 1015.3
20260831130200 26 140 3.2 6.4 0.00 0.00 0.00 69 1015.3
20260831125659 26 174 1.6 6.4 0.00 0.00 0.00 69 1015.3
20260831125423 26 185 1.6 8.0 0.00 0.00 0.00 70 1015.2
20260831124623 26 141 1.6 8.0 0.00 0.00 0.00 70 1015.1
20260831124320 26 169 0.0 6.4 0.00 0.00 0.00 70 1015.1
20260831123557 26 219 1.6 6.4 0.00 0.00 0.00 70 1014.9
20260831123031 26 139 1.6 4.8 0.00 0.00 0.00 70 1014.8
20260831122500 26 148 1.6 6.4 0.00 0.00 0.00 70 1014.8
20260831121958 26 224 1.6 6.4 0.00 0.00 0.00 70 1014.7
20260831121713 26 257 1.6 6.4 0.00 0.00 0.00 69 1014.7
20260831120948 26 214 1.6 6.4 0.00 0.00 0.00 69 1014.6
20260831120423 25 259 1.6 6.4 0.00 0.00 0.00 69 1014.6
20260831115920 25 184 1.6 4.8 0.00 0.00 0.00 69 1014.5
20260831115418 25 251 0.0 1.6 0.00 0.00 0.00 68 1014.4
20260831114915 25 140 0.0 4.8 0.00 0.00 0.00 67 1014.4
20260831114411 25 124 0.0 3.2 0.00 0.00 0.00 67 1014.3
20260831114141 25 256 0.0 3.2 0.00 0.00 0.00 67 1014.3
20260831113625 25 127 0.0 3.2 0.00 0.00 0.00 67 1014.2
20260831112906 25 124 0.0 0.0 0.00 0.00 0.00 66 1014.1
20260831112406 26 124 0.0 1.6 0.00 0.00 0.00 66 1014.1
20260831111906 26 124 0.0 4.8 0.00 0.00 0.00 66 1014.0
20260831111338 26 124 0.0 4.8 0.00 0.00 0.00 66 1013.9
20260831110837 26 116 0.0 4.8 0.00 0.00 0.00 66 1013.9
20260831110308 26 200 0.0 4.8 0.00 0.00 0.00 65 1013.8
20260831110029 25 131 0.0 4.8 0.00 0.00 0.00 65 1013.8
20260831105530 25 117 0.0 0.0 0.00 0.00 0.00 66 1013.8
20260831105026 25 117 0.0 0.0 0.00 0.00 0.00 66 1013.9
20260831104248 25 117 0.0 0.0 0.00 0.00 0.00 65 1013.8
20260831103751 25 117 0.0 0.0 0.00 0.00 0.00 65 1013.8
20260831103224 25 117 0.0 0.0 0.00 0.00 0.00 65 1013.8
20260831102657 26 117 0.0 0.0 0.00 0.00 0.00 64 1013.8
20260831102154 26 117 0.0 0.0 0.00 0.00 0.00 64 1013.8
20260831101852 26 117 0.0 0.0 0.00 0.00 0.00 64 1013.8
20260831101130 26 117 0.0 0.0 0.00 0.00 0.00 63 1013.8
20260831100824 26 117 0.0 0.0 0.00 0.00 0.00 62 1013.8
20260831095532 26 117 0.0 0.0 0.00 0.00 0.00 61 1013.8
20260831095028 26 208 0.0 0.0 0.00 0.00 0.00 61 1013.8
20260831094503 26 212 0.0 1.6 0.00 0.00 0.00 60 1013.8
20260831094000 26 212 0.0 1.6 0.00 0.00 0.00 60 1013.7
20260831093459 27 152 0.0 0.0 0.00 0.00 0.00 59 1013.7
20260831092930 27 152 0.0 0.0 0.00 0.00 0.00 58 1013.7
20260831092428 27 152 0.0 0.0 0.00 0.00 0.00 58 1013.6
20260831091900 27 152 0.0 0.0 0.00 0.00 0.00 57 1013.5
20260831091359 27 152 0.0 1.6 0.00 0.00 0.00 56 1013.5
20260831090830 28 152 0.0 1.6 0.00 0.00 0.00 55 1013.4
20260831090328 28 152 1.6 4.8 0.00 0.00 0.00 54 1013.4
20260831090050 28 149 1.6 6.4 0.00 0.00 0.00 54 1013.4
20260831085549 28 212 1.6 8.0 0.00 0.00 0.00 54 1013.4
20260831084751 28 216 0.0 8.0 0.00 0.00 0.00 53 1013.5
20260831084225 28 131 0.0 6.4 0.00 0.00 0.00 52 1013.3
20260831083659 28 127 1.6 6.4 0.00 0.00 0.00 52 1013.3
20260831083157 29 169 3.2 6.4 0.00 0.00 0.00 51 1013.3
20260831082655 29 210 4.8 9.7 0.00 0.00 0.00 51 1013.2
20260831082126 29 171 3.2 11.3 0.00 0.00 0.00 51 1013.2
20260831081624 29 200 3.2 9.7 0.00 0.00 0.00 51 1013.3
20260831081055 29 218 3.2 9.7 0.00 0.00 0.00 50 1013.3
20260831080555 29 156 3.2 9.7 0.00 0.00 0.00 50 1013.1
20260831080026 29 233 3.2 9.7 0.00 0.00 0.00 49 1013.1
20260831080009 29 149 3.2 9.7 0.00 0.00 0.00 50 1013.0
20260831075020 28 232 3.2 11.3 0.00 0.00 0.00 50 1013.0
20260831074519 28 131 3.2 11.3 0.00 0.00 0.00 50 1013.1
20260831073950 28 219 1.6 9.7 0.00 0.00 0.00 50 1013.0
20260831073448 28 243 1.6 9.7 0.00 0.00 0.00 52 1013.0
20260831073147 28 233 0.0 6.4 0.00 0.00 0.00 53 1013.0
20260831072646 28 231 0.0 3.2 0.00 0.00 0.00 54 1013.0
20260831071917 28 135 0.0 1.6 0.00 0.00 0.00 54 1013.0
20260831071411 28 218 0.0 1.6 0.00 0.00 0.00 53 1012.9
20260831071131 28 218 0.0 0.0 0.00 0.00 0.00 53 1012.9
20260831070346 28 218 0.0 0.0 0.00 0.00 0.00 52 1013.0
20260831065816 28 160 0.0 0.0 0.00 0.00 0.00 52 1013.0
20260831065538 28 160 0.0 0.0 0.00 0.00 0.00 52 1013.0
20260831064810 28 160 0.0 1.6 0.00 0.00 0.00 53 1013.1
20260831064310 28 169 0.0 1.6 0.00 0.00 0.00 53 1013.1
20260831063804 27 252 0.0 1.6 0.00 0.00 0.00 54 1013.2
20260831063304 27 210 0.0 1.6 0.00 0.00 0.00 55 1013.1
20260831063012 27 236 0.0 1.6 0.00 0.00 0.00 55 1013.0
20260831062253 27 236 0.0 1.6 0.00 0.00 0.00 55 1013.0
20260831061724 27 236 0.0 0.0 0.00 0.00 0.00 55 1013.0
20260831061224 27 236 0.0 0.0 0.00 0.00 0.00 54 1013.0
20260831060655 27 236 0.0 0.0 0.00 0.00 0.00 53 1013.1
20260831060634 28 236 0.0 0.0 0.00 0.00 0.00 53 1013.1
20260831055624 28 236 0.0 0.0 0.00 0.00 0.00 52 1013.1
20260831055100 28 236 0.0 0.0 0.00 0.00 0.00 51 1013.1
20260831054532 28 236 0.0 0.0 0.00 0.00 0.00 51 1013.2
20260831054030 29 236 0.0 0.0 0.00 0.00 0.00 49 1013.1
20260831053502 29 236 0.0 0.0 0.00 0.00 0.00 48 1013.1
20260831053000 29 236 0.0 1.6 0.00 0.00 0.00 47 1013.1
20260831052914 30 236 0.0 1.6 0.00 0.00 0.00 47 1013.0
20260831052421 30 236 0.0 1.6 0.00 0.00 0.00 47 1012.9
20260831051646 30 165 0.0 1.6 0.00 0.00 0.00 47 1012.9
20260831050923 29 146 0.0 1.6 0.00 0.00 0.00 47 1012.9
20260831050359 29 153 0.0 4.8 0.00 0.00 0.00 48 1012.9
20260831045843 28 215 0.0 3.2 0.00 0.00 0.00 49 1012.9
20260831045343 28 152 0.0 1.6 0.00 0.00 0.00 51 1012.9
20260831044839 28 152 0.0 1.6 0.00 0.00 0.00 52 1012.9
20260831044555 28 151 0.0 0.0 0.00 0.00 0.00 52 1012.9
20260831043838 28 151 0.0 0.0 0.00 0.00 0.00 51 1012.8
20260831043333 28 151 0.0 0.0 0.00 0.00 0.00 51 1012.8
20260831042814 28 151 0.0 0.0 0.00 0.00 0.00 50 1012.9
20260831042307 28 151 0.0 0.0 0.00 0.00 0.00 49 1012.8
20260831041805 29 151 0.0 0.0 0.00 0.00 0.00 49 1012.8
20260831041305 29 151 0.0 0.0 0.00 0.00 0.00 48 1012.8
20260831040800 30 150 0.0 0.0 0.00 0.00 0.00 46 1012.8
20260831040234 30 151 0.0 0.0 0.00 0.00 0.00 45 1012.8
20260831035731 30 151 0.0 0.0 0.00 0.00 0.00 45 1012.7
20260831035206 30 151 0.0 1.6 0.00 0.00 0.00 44 1012.7
20260831034636 30 243 0.0 1.6 0.00 0.00 0.00 45 1012.6
20260831034333 30 131 0.0 0.0 0.00 0.00 0.00 45 1012.5
20260831033543 30 131 0.0 0.0 0.00 0.00 0.00 45 1012.5
20260831033018 30 131 0.0 0.0 0.00 0.00 0.00 45 1012.6
20260831032450 30 131 0.0 0.0 0.00 0.00 0.00 45 1012.6
20260831031945 31 131 0.0 0.0 0.00 0.00 0.00 45 1012.6
20260831031442 31 131 0.0 0.0 0.00 0.00 0.00 45 1012.6
20260831030934 31 131 0.0 0.0 0.00 0.00 0.00 44 1012.6
20260831030429 31 131 0.0 0.0 0.00 0.00 0.00 45 1012.6
20260831025929 31 131 0.0 0.0 0.00 0.00 0.00 46 1012.5
20260831025427 31 131 0.0 0.0 0.00 0.00 0.00 46 1012.5
20260831024923 31 131 0.0 0.0 0.00 0.00 0.00 46 1012.4
20260831024421 31 131 0.0 0.0 0.00 0.00 0.00 46 1012.3
20260831023855 31 131 0.0 0.0 0.00 0.00 0.00 46 1012.2
20260831023354 31 131 0.0 3.2 0.00 0.00 0.00 46 1012.2
20260831022829 31 131 0.0 1.6 0.00 0.00 0.00 45 1012.2
20260831022302 32 131 0.0 1.6 0.00 0.00 0.00 45 1012.1
20260831021749 32 131 0.0 1.6 0.00 0.00 0.00 45 1012.0
20260831021252 32 131 0.0 1.6 0.00 0.00 0.00 44 1011.9
20260831020747 32 131 0.0 1.6 0.00 0.00 0.00 44 1011.7
20260831020246 32 131 0.0 1.6 0.00 0.00 0.00 43 1011.7
20260831015719 32 131 0.0 1.6 0.00 0.00 0.00 43 1011.6
20260831015434 32 131 0.0 3.2 0.00 0.00 0.00 42 1011.6
20260831014933 32 131 0.0 1.6 0.00 0.00 0.00 41 1011.5
20260831014409 33 120 0.0 3.2 0.00 0.00 0.00 39 1011.4
20260831013642 33 131 0.0 3.2 0.00 0.00 0.00 39 1011.4
20260831013127 33 132 1.6 6.4 0.00 0.00 0.00 38 1011.3
20260831012626 33 107 1.6 6.4 0.00 0.00 0.00 37 1011.4
20260831012128 33 123 1.6 6.4 0.00 0.00 0.00 36 1011.3
20260831011559 33 149 1.6 6.4 0.00 0.00 0.00 36 1011.3
20260831011056 33 104 1.6 6.4 0.00 0.00 0.00 36 1011.2
20260831010553 33 134 0.0 4.8 0.00 0.00 0.00 37 1011.3
20260831010051 33 131 0.0 4.8 0.00 0.00 0.00 37 1011.2
20260831005525 34 160 0.0 4.8 0.00 0.00 0.00 36 1011.1
20260831004959 34 118 0.0 3.2 0.00 0.00 0.00 35 1011.1
20260831004434 35 155 0.0 3.2 0.00 0.00 0.00 34 1011.1
20260831003905 35 150 1.6 9.7 0.00 0.00 0.00 33 1011.1
20260831003404 35 160 1.6 9.7 0.00 0.00 0.00 32 1011.1
20260831002859 35 134 1.6 6.4 0.00 0.00 0.00 31 1011.1
20260831002359 36 120 1.6 6.4 0.00 0.00 0.00 30 1011.1
20260831001901 36 120 3.2 11.3 0.00 0.00 0.00 30 1011.0
20260831001257 36 120 3.2 11.3 0.00 0.00 0.00 29 1011.1
20260831000754 36 124 3.2 11.3 0.00 0.00 0.00 29 1011.1
20260831000454 36 114 3.2 12.9 0.00 0.00 0.00 30 1011.2
20260830235929 36 121 4.8 12.9 0.00 0.00 0.00 30 1011.2
20260830235359 36 141 4.8 12.9 0.00 0.00 0.00 29 1011.3
20260830234633 36 147 4.8 12.9 0.00 0.00 0.00 29 1011.2
20260830234358 36 125 3.2 9.7 0.00 0.00 0.00 29 1011.2
20260830233603 36 193 1.6 8.0 0.00 0.00 0.00 29 1011.2
20260830233101 36 158 3.2 11.3 0.00 0.00 0.00 30 1011.3
20260830232533 36 142 4.8 11.3 0.00 0.00 0.00 30 1011.4
20260830232259 36 148 3.2 11.3 0.00 0.00 0.00 30 1011.3
20260830231504 36 128 3.2 14.5 0.00 0.00 0.00 31 1011.3
20260830231005 36 148 4.8 14.5 0.00 0.00 0.00 30 1011.4
20260830230433 36 267 6.4 17.7 0.00 0.00 0.00 29 1011.4